CZ-2C DEB

Satellite information

Favourite Embed

Satellite Type and Status

DEBRISIN ORBIT

Key statistics

Satellite CZ-2C DEB at a glance.

Uptime

5091

Days in orbit

Revolutions

≈ 14.9

Per day

Orbit

SSO

Sun Synchronous Orbit

Inclination

97.9

Latest

Satellite identification and parameters

Extended collection of information and parameters for CZ-2C DEB.

Object identification

Identified? True

Debris? True

Object name: CZ-2C DEB

International designator: 2011-039F

Object number (NORAD): 37770

Object ID (CCSDS): 37770

Country: PEOPLES REPUBLIC OF CHINA (PRC)

Current information (Y/N): Y

RCS size: SMALL

Orbital parameters

Period: 96.379 minutes

Inclination: 97.9171 deg

SMA: 6963.315 km

Apoapsis: 620.29 km

Periapsis: 550.07 km

RAAN: 107.6768 deg

Eccentricy: 0.0050421

Argument of periapsis: 89.4657 deg

Mean anomaly: 62.2386 deg

Mean motion: 14.94096681 rev/day

Mean motion (dot): 0.00014321 rev/day2

B* drag term: 0.0013106 1/REarth

Two-line elements (TLE)

Creation date: July 5, 2025, 5:45 p.m.

Reference frame: TEME

Reference center: EARTH

Epoch: July 5, 2025, 6:06 a.m. UTC

TLE line 0: 0 CZ-2C DEB

TLE line 1: 1 37770U 11039F 25186.25455324 .00014321 00000-0 13106-2 0 9994

TLE line 2: 2 37770 97.9171 107.6768 0050421 89.4657 62.2386 14.94096681741418

Live tracking on map

Real-time ground track for satellite CZ-2C DEB.

In-orbit conjunctions

A list of the most updated potential collisions computed for object CZ-2C DEB.

Target Orbit TCA Probability of collision Miss distance Type
CZ-2C DEB SSO 2024-08-21 18:06:10 0.0001290928 110.0 (m) DEBRIS

Associated space launch

CZ-2C DEB was lifted into orbit during the mission ‘Long March 2C | Shijian 10-02’, on board a Long March 2 space rocket.

The launch took place on July 29, 2011, 7:42 a.m. from Launch Area 4 (SLS-2 / 603).

For more information about the launch, click the button.

Launch to space Long March 2C | Shijian 10-02
Long March 2C | Shijian 10-02

Agency: N/A

Status: Launch Successful

Launch date: July 29, 2011, 7:42 a.m. UTC

Rocket: Long March 2

Launch pad: Launch Area 4 (SLS-2 / 603)

Location: Jiuquan Satellite Launch Center, People's Republic of China

...

Latest news about this satellite

There are no fresh news available about this satellite. Check back as we update our databases every day.


Newsletter sign-up

Weekly statistics, charts and insights to help you stay on top of the space industry.